User: anonymous   Login
Location: ???????
(55.4362°N, 38.1183°E)
Time: 10:42:14
(UTC+00:00)
Language:

Cosmos 2219 Rocket - Orbit

View from above orbital plane
View from above orbital plane
View from above satellite
View from above satellite

Ground track
Ground track

The orbit data is extracted from the following two-line orbital elements,

1 22220U 92076B   21265.62421615  .00000003  00000-0  25523-4 0  9999
2 22220  71.0031  18.6754 0011025  51.1779 319.8835 14.16476701491123
Epoch (UTC): 22 September 2021 14:58:52
Eccentricity: 0.0011025
inclination: 71.0031°
perigee height: 829 km
apogee height: 845 km
right ascension of ascending node: 18.6754°
argument of perigee: 51.1779°
revolutions per day: 14.16476701
mean anomaly at epoch: 319.8835°
orbit number at epoch: 49112

The dashed part of the orbit path shows where the satellite is in the earth's shadow,  

DLR